Time,TemperatureF,DewpointF,PressureIn,WindDirection,WindDirectionDegrees,WindSpeedMPH,WindSpeedGustMPH,Humidity,HourlyPrecipIn,Conditions,Clouds,dailyrainin,SoftwareType,DateUTC
2013-09-20 00:03:00,53.7,47.0,29.90,WNW,299,0.0,4.0,78,0.00,,,0.00,WeatherCatV1.21B27,2013-09-20 05:03:00,
2013-09-20 00:08:00,53.5,46.8,29.90,WNW,286,1.0,4.0,78,0.00,,,0.00,WeatherCatV1.21B27,2013-09-20 05:08:00,
2013-09-20 00:13:00,53.3,46.6,29.91,WNW,289,1.0,3.0,78,0.00,,,0.00,WeatherCatV1.21B27,2013-09-20 05:13:00,
2013-09-20 00:18:00,53.2,46.9,29.90,NW,314,1.0,2.0,79,0.00,,,0.00,WeatherCatV1.21B27,2013-09-20 05:18:00,
2013-09-20 00:23:00,53.1,46.8,29.90,NNW,332,3.0,4.0,79,0.00,,,0.00,WeatherCatV1.21B27,2013-09-20 05:23:00,
2013-09-20 00:28:00,53.0,46.7,29.90,WNW,287,1.0,5.0,79,0.00,,,0.00,WeatherCatV1.21B27,2013-09-20 05:28:00,
2013-09-20 00:33:00,52.9,46.6,29.90,NW,307,1.0,5.0,79,0.00,,,0.00,WeatherCatV1.21B27,2013-09-20 05:33:00,
2013-09-20 00:38:00,52.7,46.4,29.90,West,263,2.0,2.0,79,0.00,,,0.00,WeatherCatV1.21B27,2013-09-20 05:38:00,
2013-09-20 00:43:00,52.6,46.6,29.90,WNW,286,0.0,4.0,80,0.00,,,0.00,WeatherCatV1.21B27,2013-09-20 05:43:00,
2013-09-20 00:48:00,52.4,46.4,29.91,WNW,299,0.0,2.0,80,0.00,,,0.00,WeatherCatV1.21B27,2013-09-20 05:48:00,
2013-09-20 00:53:00,52.3,46.3,29.91,WNW,295,0.0,3.0,80,0.00,,,0.00,WeatherCatV1.21B27,2013-09-20 05:53:00,
2013-09-20 00:58:00,52.2,46.2,29.91,WNW,291,2.0,3.0,80,0.00,,,0.00,WeatherCatV1.21B27,2013-09-20 05:58:00,
2013-09-20 01:03:00,52.1,46.1,29.91,WNW,298,0.0,1.0,80,0.00,,,0.00,WeatherCatV1.21B27,2013-09-20 06:03:00,
2013-09-20 01:08:00,52.0,46.3,29.91,WNW,301,1.0,2.0,81,0.00,,,0.00,WeatherCatV1.21B27,2013-09-20 06:08:00,
2013-09-20 01:13:00,51.7,46.1,29.91,WNW,301,0.0,4.0,81,0.00,,,0.00,WeatherCatV1.21B27,2013-09-20 06:13:00,
2013-09-20 01:18:00,51.6,46.0,29.91,NNW,344,3.0,3.0,81,0.00,,,0.00,WeatherCatV1.21B27,2013-09-20 06:18:00,
2013-09-20 01:23:00,51.5,46.2,29.91,NNW,332,1.0,5.0,82,0.00,,,0.00,WeatherCatV1.21B27,2013-09-20 06:23:00,
2013-09-20 01:28:00,51.4,46.1,29.91,WNW,286,0.0,5.0,82,0.00,,,0.00,WeatherCatV1.21B27,2013-09-20 06:28:00,
2013-09-20 01:33:00,51.3,46.0,29.91,WNW,283,0.0,4.0,82,0.00,,,0.00,WeatherCatV1.21B27,2013-09-20 06:33:00,
2013-09-20 01:38:00,51.2,45.9,29.92,West,262,2.0,3.0,82,0.00,,,0.00,WeatherCatV1.21B27,2013-09-20 06:38:00,
2013-09-20 01:43:00,51.2,45.9,29.92,WNW,294,0.0,4.0,82,0.00,,,0.00,WeatherCatV1.21B27,2013-09-20 06:43:00,
2013-09-20 01:48:00,51.1,45.8,29.92,WNW,282,2.0,5.0,82,0.00,,,0.00,WeatherCatV1.21B27,2013-09-20 06:48:00,
2013-09-20 01:53:00,51.0,45.7,29.92,WNW,291,1.0,3.0,82,0.00,,,0.00,WeatherCatV1.21B27,2013-09-20 06:53:00,
2013-09-20 01:58:00,50.8,45.5,29.92,NW,313,0.0,3.0,82,0.00,,,0.00,WeatherCatV1.21B27,2013-09-20 06:58:00,
2013-09-20 02:03:00,50.7,45.7,29.92,NNW,329,0.0,1.0,83,0.00,,,0.00,WeatherCatV1.21B27,2013-09-20 07:03:00,
2013-09-20 02:08:00,50.5,45.5,29.92,WNW,290,3.0,3.0,83,0.00,,,0.00,WeatherCatV1.21B27,2013-09-20 07:08:00,
2013-09-20 02:13:00,50.4,45.8,29.92,NW,311,0.0,3.0,84,0.00,,,0.00,WeatherCatV1.21B27,2013-09-20 07:13:00,
2013-09-20 02:18:00,50.2,45.5,29.92,WNW,289,1.0,3.0,84,0.00,,,0.00,WeatherCatV1.21B27,2013-09-20 07:18:00,
2013-09-20 02:23:00,50.1,45.5,29.92,West,276,0.0,3.0,84,0.00,,,0.00,WeatherCatV1.21B27,2013-09-20 07:23:00,
2013-09-20 02:28:00,50.0,45.4,29.92,WNW,287,1.0,5.0,84,0.00,,,0.00,WeatherCatV1.21B27,2013-09-20 07:28:00,
2013-09-20 02:33:00,49.9,45.6,29.92,NW,313,0.0,8.0,85,0.00,,,0.00,WeatherCatV1.21B27,2013-09-20 07:33:00,
2013-09-20 02:38:00,49.9,45.6,29.92,NW,307,0.0,2.0,85,0.00,,,0.00,WeatherCatV1.21B27,2013-09-20 07:38:00,
2013-09-20 02:43:00,49.8,45.5,29.92,NW,307,3.0,4.0,85,0.00,,,0.00,WeatherCatV1.21B27,2013-09-20 07:43:00,
2013-09-20 02:48:00,49.8,45.5,29.92,WNW,286,3.0,5.0,85,0.00,,,0.00,WeatherCatV1.21B27,2013-09-20 07:48:00,
2013-09-20 02:53:00,49.8,45.5,29.91,NNW,345,2.0,4.0,85,0.00,,,0.00,WeatherCatV1.21B27,2013-09-20 07:53:00,
2013-09-20 02:58:00,49.8,45.5,29.91,WNW,299,2.0,5.0,85,0.00,,,0.00,WeatherCatV1.21B27,2013-09-20 07:58:00,
2013-09-20 03:03:00,49.7,45.4,29.91,WNW,299,1.0,3.0,85,0.00,,,0.00,WeatherCatV1.21B27,2013-09-20 08:03:00,
2013-09-20 03:08:00,49.6,45.3,29.91,WNW,294,0.0,1.0,85,0.00,,,0.00,WeatherCatV1.21B27,2013-09-20 08:08:00,
2013-09-20 03:13:00,49.5,45.5,29.91,WNW,282,0.0,3.0,86,0.00,,,0.00,WeatherCatV1.21B27,2013-09-20 08:13:00,
2013-09-20 03:18:00,49.4,45.4,29.91,West,270,1.0,4.0,86,0.00,,,0.00,WeatherCatV1.21B27,2013-09-20 08:18:00,
2013-09-20 03:23:00,49.4,45.4,29.91,NNW,347,1.0,4.0,86,0.00,,,0.00,WeatherCatV1.21B27,2013-09-20 08:23:00,
2013-09-20 03:28:00,49.3,45.3,29.91,West,265,2.0,4.0,86,0.00,,,0.00,WeatherCatV1.21B27,2013-09-20 08:28:00,
2013-09-20 03:33:00,49.3,45.3,29.91,West,271,0.0,2.0,86,0.00,,,0.00,WeatherCatV1.21B27,2013-09-20 08:33:00,
2013-09-20 03:38:00,49.2,45.2,29.91,West,280,0.0,3.0,86,0.00,,,0.00,WeatherCatV1.21B27,2013-09-20 08:38:00,
2013-09-20 03:43:00,49.1,45.4,29.92,WNW,283,1.0,4.0,87,0.00,,,0.00,WeatherCatV1.21B27,2013-09-20 08:43:00,
2013-09-20 03:48:00,49.0,45.3,29.92,WNW,291,3.0,3.0,87,0.00,,,0.00,WeatherCatV1.21B27,2013-09-20 08:48:00,
2013-09-20 03:53:00,48.9,45.2,29.92,WNW,298,0.0,4.0,87,0.00,,,0.00,WeatherCatV1.21B27,2013-09-20 08:53:00,
2013-09-20 03:58:00,48.7,45.0,29.92,NW,307,0.0,6.0,87,0.00,,,0.00,WeatherCatV1.21B27,2013-09-20 08:58:00,
2013-09-20 04:03:00,48.5,45.1,29.92,NW,312,0.0,2.0,88,0.00,,,0.00,WeatherCatV1.21B27,2013-09-20 09:03:00,
2013-09-20 04:08:00,48.3,44.9,29.92,NW,312,1.0,1.0,88,0.00,,,0.00,WeatherCatV1.21B27,2013-09-20 09:08:00,
2013-09-20 04:13:00,48.2,45.1,29.92,WNW,300,1.0,4.0,89,0.00,,,0.00,WeatherCatV1.21B27,2013-09-20 09:13:00,
2013-09-20 04:18:00,48.1,45.0,29.92,WNW,301,0.0,1.0,89,0.00,,,0.00,WeatherCatV1.21B27,2013-09-20 09:18:00,
2013-09-20 04:23:00,48.0,44.9,29.92,North,351,0.0,3.0,89,0.00,,,0.00,WeatherCatV1.21B27,2013-09-20 09:23:00,
2013-09-20 04:28:00,48.0,44.9,29.92,NW,304,0.0,3.0,89,0.00,,,0.00,WeatherCatV1.21B27,2013-09-20 09:28:00,
2013-09-20 04:33:00,47.9,44.8,29.92,WNW,298,0.0,1.0,89,0.00,,,0.00,WeatherCatV1.21B27,2013-09-20 09:33:00,
2013-09-20 04:38:00,47.9,44.8,29.92,WNW,297,0.0,4.0,89,0.00,,,0.00,WeatherCatV1.21B27,2013-09-20 09:38:00,
2013-09-20 04:43:00,47.9,44.8,29.92,WNW,297,1.0,1.0,89,0.00,,,0.00,WeatherCatV1.21B27,2013-09-20 09:43:00,
2013-09-20 04:48:00,47.9,44.8,29.92,WNW,303,1.0,4.0,89,0.00,,,0.00,WeatherCatV1.21B27,2013-09-20 09:48:00,
2013-09-20 04:53:00,48.0,44.9,29.92,WNW,289,7.0,7.0,89,0.00,,,0.00,WeatherCatV1.21B27,2013-09-20 09:53:00,
2013-09-20 04:58:00,48.3,45.2,29.92,WSW,249,1.0,7.0,89,0.00,,,0.00,WeatherCatV1.21B27,2013-09-20 09:58:00,
2013-09-20 05:03:00,48.6,45.2,29.92,West,278,1.0,7.0,88,0.00,,,0.00,WeatherCatV1.21B27,2013-09-20 10:03:00,
2013-09-20 05:08:00,48.7,45.0,29.92,West,279,1.0,3.0,87,0.00,,,0.00,WeatherCatV1.21B27,2013-09-20 10:08:00,
2013-09-20 05:13:00,48.6,44.9,29.92,West,278,1.0,5.0,87,0.00,,,0.00,WeatherCatV1.21B27,2013-09-20 10:13:00,
2013-09-20 05:18:00,48.6,44.9,29.92,West,279,0.0,4.0,87,0.00,,,0.00,WeatherCatV1.21B27,2013-09-20 10:18:00,
2013-09-20 05:23:00,48.5,44.8,29.92,West,274,0.0,4.0,87,0.00,,,0.00,WeatherCatV1.21B27,2013-09-20 10:23:00,
2013-09-20 05:28:00,48.4,44.7,29.92,WNW,303,0.0,3.0,87,0.00,,,0.00,WeatherCatV1.21B27,2013-09-20 10:28:00,
2013-09-20 05:33:00,48.3,44.6,29.92,WNW,286,0.0,4.0,87,0.00,,,0.00,WeatherCatV1.21B27,2013-09-20 10:33:00,
2013-09-20 05:38:00,48.2,44.8,29.92,WSW,248,2.0,4.0,88,0.00,,,0.00,WeatherCatV1.21B27,2013-09-20 10:38:00,
2013-09-20 05:43:00,48.2,44.8,29.92,WNW,301,1.0,5.0,88,0.00,,,0.00,WeatherCatV1.21B27,2013-09-20 10:43:00,
2013-09-20 05:48:00,48.3,44.6,29.92,WNW,303,4.0,4.0,87,0.00,,,0.00,WeatherCatV1.21B27,2013-09-20 10:48:00,
2013-09-20 05:53:00,48.5,45.1,29.92,NNW,338,4.0,4.0,88,0.00,,,0.00,WeatherCatV1.21B27,2013-09-20 10:53:00,
2013-09-20 05:58:00,48.7,45.0,29.92,WNW,296,2.0,3.0,87,0.00,,,0.00,WeatherCatV1.21B27,2013-09-20 10:58:00,
2013-09-20 06:03:00,49.0,45.3,29.92,NNW,338,1.0,4.0,87,0.00,,,0.00,WeatherCatV1.21B27,2013-09-20 11:03:00,
2013-09-20 06:08:00,49.2,45.5,29.92,West,259,1.0,6.0,87,0.00,,,0.00,WeatherCatV1.21B27,2013-09-20 11:08:00,
2013-09-20 06:13:00,49.4,45.7,29.92,NW,307,3.0,6.0,87,0.00,,,0.00,WeatherCatV1.21B27,2013-09-20 11:13:00,
2013-09-20 06:18:00,49.5,45.8,29.92,WNW,298,2.0,4.0,87,0.00,,,0.00,WeatherCatV1.21B27,2013-09-20 11:18:00,
2013-09-20 06:23:00,49.6,45.9,29.93,WNW,292,8.0,8.0,87,0.00,,,0.00,WeatherCatV1.21B27,2013-09-20 11:23:00,
2013-09-20 06:28:00,49.6,45.9,29.93,WNW,288,2.0,3.0,87,0.00,,,0.00,WeatherCatV1.21B27,2013-09-20 11:28:00,
2013-09-20 06:33:00,49.6,45.9,29.93,West,278,3.0,5.0,87,0.00,,,0.00,WeatherCatV1.21B27,2013-09-20 11:33:00,
2013-09-20 06:38:00,49.5,45.8,29.94,North,0,4.0,4.0,87,0.00,,,0.00,WeatherCatV1.21B27,2013-09-20 11:38:00,
2013-09-20 06:43:00,49.6,45.9,29.94,North,0,2.0,6.0,87,0.00,,,0.00,WeatherCatV1.21B27,2013-09-20 11:43:00,
2013-09-20 06:48:00,49.6,45.9,29.94,West,274,0.0,6.0,87,0.00,,,0.00,WeatherCatV1.21B27,2013-09-20 11:48:00,
2013-09-20 06:53:00,49.7,46.0,29.94,West,270,1.0,5.0,87,0.00,,,0.00,WeatherCatV1.21B27,2013-09-20 11:53:00,
2013-09-20 06:58:00,49.8,46.1,29.93,WSW,257,0.0,5.0,87,0.00,,,0.00,WeatherCatV1.21B27,2013-09-20 11:58:00,
2013-09-20 07:03:00,50.0,46.3,29.93,NNE,14,5.0,7.0,87,0.00,,,0.00,WeatherCatV1.21B27,2013-09-20 12:03:00,
2013-09-20 07:08:00,50.2,46.8,29.94,WNW,301,2.0,5.0,88,0.00,,,0.00,WeatherCatV1.21B27,2013-09-20 12:08:00,
2013-09-20 07:13:00,50.3,46.9,29.94,West,278,6.0,6.0,88,0.00,,,0.00,WeatherCatV1.21B27,2013-09-20 12:13:00,
2013-09-20 07:18:00,50.5,47.4,29.95,WNW,302,2.0,3.0,89,0.00,,,0.00,WeatherCatV1.21B27,2013-09-20 12:18:00,
2013-09-20 07:23:00,50.6,47.5,29.95,NNW,331,2.0,5.0,89,0.00,,,0.00,WeatherCatV1.21B27,2013-09-20 12:23:00,
2013-09-20 07:28:00,50.7,47.6,29.95,WNW,286,3.0,6.0,89,0.00,,,0.00,WeatherCatV1.21B27,2013-09-20 12:28:00,
2013-09-20 07:33:00,50.8,47.7,29.96,West,276,4.0,5.0,89,0.00,,,0.00,WeatherCatV1.21B27,2013-09-20 12:33:00,
2013-09-20 07:38:00,50.9,47.8,29.96,West,270,4.0,6.0,89,0.00,,,0.00,WeatherCatV1.21B27,2013-09-20 12:38:00,
2013-09-20 07:43:00,51.0,47.9,29.96,West,272,7.0,7.0,89,0.00,,,0.00,WeatherCatV1.21B27,2013-09-20 12:43:00,
2013-09-20 07:48:00,51.0,47.9,29.96,WNW,297,4.0,8.0,89,0.00,,,0.00,WeatherCatV1.21B27,2013-09-20 12:48:00,
2013-09-20 07:53:00,51.0,47.9,29.96,West,268,2.0,5.0,89,0.00,,,0.00,WeatherCatV1.21B27,2013-09-20 12:53:00,
2013-09-20 07:58:00,51.1,48.0,29.96,West,269,4.0,6.0,89,0.00,,,0.00,WeatherCatV1.21B27,2013-09-20 12:58:00,
2013-09-20 08:03:00,51.2,48.1,29.97,West,278,1.0,4.0,89,0.00,,,0.00,WeatherCatV1.21B27,2013-09-20 13:03:00,
2013-09-20 08:08:00,51.2,48.1,29.97,NW,326,1.0,7.0,89,0.00,,,0.00,WeatherCatV1.21B27,2013-09-20 13:08:00,
2013-09-20 08:13:00,51.1,48.0,29.97,West,280,2.0,2.0,89,0.00,,,0.00,WeatherCatV1.21B27,2013-09-20 13:13:00,
2013-09-20 08:18:00,51.0,47.9,29.97,West,268,0.0,4.0,89,0.00,,,0.00,WeatherCatV1.21B27,2013-09-20 13:18:00,
2013-09-20 08:23:00,50.9,47.8,29.97,NNW,330,1.0,2.0,89,0.00,,,0.00,WeatherCatV1.21B27,2013-09-20 13:23:00,
2013-09-20 08:28:00,50.8,47.7,29.97,WNW,293,0.0,1.0,89,0.00,,,0.00,WeatherCatV1.21B27,2013-09-20 13:28:00,
2013-09-20 08:33:00,50.7,47.3,29.97,WNW,288,0.0,3.0,88,0.00,,,0.00,WeatherCatV1.21B27,2013-09-20 13:33:00,
2013-09-20 08:38:00,50.8,47.4,29.98,West,274,1.0,2.0,88,0.00,,,0.00,WeatherCatV1.21B27,2013-09-20 13:38:00,
2013-09-20 08:43:00,50.8,47.1,29.97,WNW,291,0.0,3.0,87,0.00,,,0.00,WeatherCatV1.21B27,2013-09-20 13:43:00,
2013-09-20 08:48:00,50.9,46.9,29.98,NNW,333,0.0,3.0,86,0.00,,,0.00,WeatherCatV1.21B27,2013-09-20 13:48:00,
2013-09-20 08:53:00,51.2,47.2,29.98,WNW,299,2.0,6.0,86,0.00,,,0.00,WeatherCatV1.21B27,2013-09-20 13:53:00,
2013-09-20 08:58:00,51.7,47.0,29.97,NW,320,0.0,5.0,84,0.00,,,0.00,WeatherCatV1.21B27,2013-09-20 13:58:00,
2013-09-20 09:03:00,52.2,47.5,29.98,WNW,289,2.0,4.0,84,0.00,,,0.00,WeatherCatV1.21B27,2013-09-20 14:03:00,
2013-09-20 09:08:00,52.6,47.6,29.98,West,280,3.0,7.0,83,0.00,,,0.00,WeatherCatV1.21B27,2013-09-20 14:08:00,
2013-09-20 09:13:00,52.9,47.5,29.98,WNW,283,1.0,3.0,82,0.00,,,0.00,WeatherCatV1.21B27,2013-09-20 14:13:00,
2013-09-20 09:18:00,53.1,47.4,29.98,WNW,285,3.0,4.0,81,0.00,,,0.00,WeatherCatV1.21B27,2013-09-20 14:18:00,
2013-09-20 09:23:00,53.4,47.4,29.98,WNW,284,2.0,4.0,80,0.00,,,0.00,WeatherCatV1.21B27,2013-09-20 14:23:00,
2013-09-20 09:28:00,53.6,47.6,29.98,NNW,327,3.0,5.0,80,0.00,,,0.00,WeatherCatV1.21B27,2013-09-20 14:28:00,
2013-09-20 09:33:00,53.9,47.9,29.98,NNW,327,2.0,6.0,80,0.00,,,0.00,WeatherCatV1.21B27,2013-09-20 14:33:00,
2013-09-20 09:38:00,54.1,47.7,29.98,NW,318,4.0,8.0,79,0.00,,,0.00,WeatherCatV1.21B27,2013-09-20 14:38:00,
2013-09-20 09:43:00,53.8,47.4,29.98,NNE,33,6.0,9.0,79,0.00,,,0.00,WeatherCatV1.21B27,2013-09-20 14:43:00,
2013-09-20 09:48:00,53.8,47.8,29.98,NW,311,1.0,4.0,80,0.00,,,0.00,WeatherCatV1.21B27,2013-09-20 14:48:00,
2013-09-20 09:53:00,54.4,48.0,29.99,North,0,3.0,5.0,79,0.00,,,0.00,WeatherCatV1.21B27,2013-09-20 14:53:00,
2013-09-20 09:58:00,54.6,47.9,29.99,NW,320,4.0,6.0,78,0.00,,,0.00,WeatherCatV1.21B27,2013-09-20 14:58:00,
2013-09-20 10:03:00,54.9,48.2,29.99,WSW,257,6.0,10.0,78,0.00,,,0.00,WeatherCatV1.21B27,2013-09-20 15:03:00,
2013-09-20 10:08:00,55.1,48.0,29.99,NNW,338,1.0,6.0,77,0.00,,,0.00,WeatherCatV1.21B27,2013-09-20 15:08:00,
2013-09-20 10:13:00,55.2,47.8,29.99,WNW,287,2.0,8.0,76,0.00,,,0.00,WeatherCatV1.21B27,2013-09-20 15:13:00,
2013-09-20 10:18:00,55.3,47.9,29.99,North,0,6.0,10.0,76,0.00,,,0.00,WeatherCatV1.21B27,2013-09-20 15:18:00,
2013-09-20 10:23:00,55.6,47.8,29.99,West,260,2.0,8.0,75,0.00,,,0.00,WeatherCatV1.21B27,2013-09-20 15:23:00,
2013-09-20 10:28:00,55.8,48.0,29.99,NW,305,3.0,9.0,75,0.00,,,0.00,WeatherCatV1.21B27,2013-09-20 15:28:00,
2013-09-20 10:33:00,56.4,48.2,29.99,WNW,294,3.0,7.0,74,0.00,,,0.00,WeatherCatV1.21B27,2013-09-20 15:33:00,
2013-09-20 10:38:00,57.0,48.4,29.99,NW,322,2.0,6.0,73,0.00,,,0.00,WeatherCatV1.21B27,2013-09-20 15:38:00,
2013-09-20 10:43:00,57.3,48.3,29.99,WNW,293,1.0,8.0,72,0.00,,,0.00,WeatherCatV1.21B27,2013-09-20 15:43:00,
2013-09-20 10:48:00,57.3,48.0,29.99,NW,313,2.0,6.0,71,0.00,,,0.00,WeatherCatV1.21B27,2013-09-20 15:48:00,
2013-09-20 10:53:00,57.2,47.9,29.98,North,5,4.0,10.0,71,0.00,,,0.00,WeatherCatV1.21B27,2013-09-20 15:53:00,
2013-09-20 10:58:00,57.2,47.5,29.99,NW,304,3.0,10.0,70,0.00,,,0.00,WeatherCatV1.21B27,2013-09-20 15:58:00,
2013-09-20 11:03:00,57.4,47.3,29.99,NNW,345,6.0,11.0,69,0.00,,,0.00,WeatherCatV1.21B27,2013-09-20 16:03:00,
2013-09-20 11:08:00,57.5,47.4,29.99,NNW,335,8.0,10.0,69,0.00,,,0.00,WeatherCatV1.21B27,2013-09-20 16:08:00,
2013-09-20 11:13:00,57.6,47.9,29.99,WNW,289,1.0,4.0,70,0.00,,,0.00,WeatherCatV1.21B27,2013-09-20 16:13:00,
2013-09-20 11:18:00,57.7,47.6,29.99,North,353,5.0,8.0,69,0.00,,,0.00,WeatherCatV1.21B27,2013-09-20 16:18:00,
2013-09-20 11:23:00,57.7,47.2,29.99,NNW,333,5.0,8.0,68,0.00,,,0.00,WeatherCatV1.21B27,2013-09-20 16:23:00,
2013-09-20 11:28:00,58.2,47.3,29.99,West,270,8.0,8.0,67,0.00,,,0.00,WeatherCatV1.21B27,2013-09-20 16:28:00,
2013-09-20 11:33:00,57.9,47.0,29.99,NW,319,9.0,9.0,67,0.00,,,0.00,WeatherCatV1.21B27,2013-09-20 16:33:00,
2013-09-20 11:38:00,58.1,47.6,29.99,NNW,332,6.0,7.0,68,0.00,,,0.00,WeatherCatV1.21B27,2013-09-20 16:38:00,
2013-09-20 11:43:00,58.3,47.0,29.99,NW,317,2.0,7.0,66,0.00,,,0.00,WeatherCatV1.21B27,2013-09-20 16:43:00,
2013-09-20 11:48:00,58.1,47.2,29.99,WNW,286,4.0,7.0,67,0.00,,,0.00,WeatherCatV1.21B27,2013-09-20 16:48:00,
2013-09-20 11:53:00,57.8,46.9,29.99,North,352,9.0,9.0,67,0.00,,,0.00,WeatherCatV1.21B27,2013-09-20 16:53:00,
2013-09-20 11:58:00,57.8,46.5,29.99,NW,320,3.0,6.0,66,0.00,,,0.00,WeatherCatV1.21B27,2013-09-20 16:58:00,
2013-09-20 12:03:00,58.2,47.7,29.98,NW,312,3.0,3.0,68,0.00,,,0.00,WeatherCatV1.21B27,2013-09-20 17:03:00,
2013-09-20 12:08:00,58.8,47.1,29.98,North,352,3.0,10.0,65,0.00,,,0.00,WeatherCatV1.21B27,2013-09-20 17:08:00,
2013-09-20 12:13:00,59.1,46.9,29.98,NE,56,4.0,7.0,64,0.00,,,0.00,WeatherCatV1.21B27,2013-09-20 17:13:00,
2013-09-20 12:18:00,59.1,46.5,29.98,West,270,3.0,6.0,63,0.00,,,0.00,WeatherCatV1.21B27,2013-09-20 17:18:00,
2013-09-20 12:23:00,59.8,46.8,29.98,WNW,290,1.0,11.0,62,0.00,,,0.00,WeatherCatV1.21B27,2013-09-20 17:23:00,
2013-09-20 12:28:00,59.6,46.1,29.98,NW,324,4.0,8.0,61,0.00,,,0.00,WeatherCatV1.21B27,2013-09-20 17:28:00,
2013-09-20 12:33:00,59.1,46.1,29.98,WNW,284,5.0,8.0,62,0.00,,,0.00,WeatherCatV1.21B27,2013-09-20 17:33:00,
2013-09-20 12:38:00,59.3,46.3,29.97,WNW,284,0.0,7.0,62,0.00,,,0.00,WeatherCatV1.21B27,2013-09-20 17:38:00,
2013-09-20 12:43:00,59.7,47.1,29.97,West,281,3.0,4.0,63,0.00,,,0.00,WeatherCatV1.21B27,2013-09-20 17:43:00,
2013-09-20 12:48:00,59.6,46.6,29.97,NNW,331,5.0,8.0,62,0.00,,,0.00,WeatherCatV1.21B27,2013-09-20 17:48:00,
2013-09-20 12:53:00,59.6,46.6,29.97,NW,314,1.0,6.0,62,0.00,,,0.00,WeatherCatV1.21B27,2013-09-20 17:53:00,
2013-09-20 12:58:00,60.4,47.7,29.97,WNW,303,3.0,5.0,63,0.00,,,0.00,WeatherCatV1.21B27,2013-09-20 17:58:00,
2013-09-20 13:03:00,60.8,46.8,29.96,NNW,335,3.0,10.0,60,0.00,,,0.00,WeatherCatV1.21B27,2013-09-20 18:03:00,
2013-09-20 13:08:00,60.8,46.8,29.97,NW,322,5.0,5.0,60,0.00,,,0.00,WeatherCatV1.21B27,2013-09-20 18:08:00,
2013-09-20 13:13:00,61.1,46.7,29.96,WNW,299,3.0,8.0,59,0.00,,,0.00,WeatherCatV1.21B27,2013-09-20 18:13:00,
2013-09-20 13:18:00,61.4,46.0,29.96,North,349,4.0,10.0,57,0.00,,,0.00,WeatherCatV1.21B27,2013-09-20 18:18:00,
2013-09-20 13:23:00,61.3,46.4,29.96,NW,317,2.0,7.0,58,0.00,,,0.00,WeatherCatV1.21B27,2013-09-20 18:23:00,
2013-09-20 13:28:00,61.4,46.0,29.96,NNW,336,4.0,5.0,57,0.00,,,0.00,WeatherCatV1.21B27,2013-09-20 18:28:00,
2013-09-20 13:33:00,62.1,45.7,29.96,NNE,31,4.0,9.0,55,0.00,,,0.00,WeatherCatV1.21B27,2013-09-20 18:33:00,
2013-09-20 13:38:00,62.3,45.9,29.96,West,270,8.0,9.0,55,0.00,,,0.00,WeatherCatV1.21B27,2013-09-20 18:38:00,
2013-09-20 13:43:00,62.0,44.7,29.96,WNW,293,4.0,10.0,53,0.00,,,0.00,WeatherCatV1.21B27,2013-09-20 18:43:00,
2013-09-20 13:48:00,62.0,45.2,29.96,North,10,3.0,8.0,54,0.00,,,0.00,WeatherCatV1.21B27,2013-09-20 18:48:00,
2013-09-20 13:53:00,62.2,45.8,29.96,NNW,330,2.0,12.0,55,0.00,,,0.00,WeatherCatV1.21B27,2013-09-20 18:53:00,
2013-09-20 13:58:00,62.3,45.9,29.95,NW,320,5.0,8.0,55,0.00,,,0.00,WeatherCatV1.21B27,2013-09-20 18:58:00,
2013-09-20 14:03:00,62.2,45.3,29.95,WNW,303,3.0,6.0,54,0.00,,,0.00,WeatherCatV1.21B27,2013-09-20 19:03:00,
2013-09-20 14:08:00,62.2,44.8,29.95,West,267,8.0,9.0,53,0.00,,,0.00,WeatherCatV1.21B27,2013-09-20 19:08:00,
2013-09-20 14:13:00,62.2,44.8,29.95,NW,306,4.0,8.0,53,0.00,,,0.00,WeatherCatV1.21B27,2013-09-20 19:13:00,
2013-09-20 14:18:00,62.3,45.0,29.95,WNW,287,4.0,9.0,53,0.00,,,0.00,WeatherCatV1.21B27,2013-09-20 19:18:00,
2013-09-20 14:23:00,62.3,45.0,29.94,West,278,3.0,9.0,53,0.00,,,0.00,WeatherCatV1.21B27,2013-09-20 19:23:00,
2013-09-20 14:28:00,62.6,45.2,29.94,WNW,295,1.0,7.0,53,0.00,,,0.00,WeatherCatV1.21B27,2013-09-20 19:28:00,
2013-09-20 14:33:00,63.1,44.7,29.94,NW,313,8.0,8.0,51,0.00,,,0.00,WeatherCatV1.21B27,2013-09-20 19:33:00,
2013-09-20 14:38:00,62.7,45.3,29.94,WNW,284,6.0,6.0,53,0.00,,,0.00,WeatherCatV1.21B27,2013-09-20 19:38:00,
2013-09-20 14:43:00,63.0,45.6,29.94,West,269,2.0,6.0,53,0.00,,,0.00,WeatherCatV1.21B27,2013-09-20 19:43:00,
2013-09-20 14:48:00,63.3,44.9,29.94,NNW,336,4.0,10.0,51,0.00,,,0.00,WeatherCatV1.21B27,2013-09-20 19:48:00,
2013-09-20 14:53:00,63.3,45.4,29.94,North,10,2.0,8.0,52,0.00,,,0.00,WeatherCatV1.21B27,2013-09-20 19:53:00,
2013-09-20 14:58:00,63.3,44.9,29.94,NW,305,0.0,9.0,51,0.00,,,0.00,WeatherCatV1.21B27,2013-09-20 19:58:00,
2013-09-20 15:03:00,63.5,45.5,29.94,WNW,296,1.0,7.0,52,0.00,,,0.00,WeatherCatV1.21B27,2013-09-20 20:03:00,
2013-09-20 15:08:00,63.7,45.7,29.94,WNW,303,8.0,12.0,52,0.00,,,0.00,WeatherCatV1.21B27,2013-09-20 20:08:00,
2013-09-20 15:13:00,63.6,44.6,29.94,West,271,4.0,10.0,50,0.00,,,0.00,WeatherCatV1.21B27,2013-09-20 20:13:00,
2013-09-20 15:18:00,63.1,44.2,29.94,WNW,289,6.0,6.0,50,0.00,,,0.00,WeatherCatV1.21B27,2013-09-20 20:18:00,
2013-09-20 15:23:00,63.3,44.3,29.94,NW,305,5.0,11.0,50,0.00,,,0.00,WeatherCatV1.21B27,2013-09-20 20:23:00,
2013-09-20 15:28:00,63.6,43.5,29.94,WNW,294,3.0,9.0,48,0.00,,,0.00,WeatherCatV1.21B27,2013-09-20 20:28:00,
2013-09-20 15:33:00,63.2,43.7,29.94,WNW,295,4.0,13.0,49,0.00,,,0.00,WeatherCatV1.21B27,2013-09-20 20:33:00,
2013-09-20 15:38:00,62.9,43.4,29.94,NW,313,6.0,8.0,49,0.00,,,0.00,WeatherCatV1.21B27,2013-09-20 20:38:00,
2013-09-20 15:43:00,63.1,43.6,29.94,NNW,328,2.0,7.0,49,0.00,,,0.00,WeatherCatV1.21B27,2013-09-20 20:43:00,
2013-09-20 15:48:00,63.1,43.1,29.94,West,281,5.0,10.0,48,0.00,,,0.00,WeatherCatV1.21B27,2013-09-20 20:48:00,
2013-09-20 15:53:00,63.0,43.5,29.94,WNW,282,1.0,8.0,49,0.00,,,0.00,WeatherCatV1.21B27,2013-09-20 20:53:00,
2013-09-20 15:58:00,63.1,44.2,29.94,NNW,338,7.0,8.0,50,0.00,,,0.00,WeatherCatV1.21B27,2013-09-20 20:58:00,
2013-09-20 16:03:00,63.3,43.8,29.94,WNW,296,5.0,7.0,49,0.00,,,0.00,WeatherCatV1.21B27,2013-09-20 21:03:00,
2013-09-20 16:08:00,63.2,44.2,29.94,NW,305,2.0,7.0,50,0.00,,,0.00,WeatherCatV1.21B27,2013-09-20 21:08:00,
2013-09-20 16:13:00,63.4,44.4,29.94,WNW,295,3.0,4.0,50,0.00,,,0.00,WeatherCatV1.21B27,2013-09-20 21:13:00,
2013-09-20 16:18:00,63.7,43.6,29.94,NW,320,3.0,9.0,48,0.00,,,0.00,WeatherCatV1.21B27,2013-09-20 21:18:00,
2013-09-20 16:23:00,63.4,43.9,29.94,West,272,3.0,5.0,49,0.00,,,0.00,WeatherCatV1.21B27,2013-09-20 21:23:00,
2013-09-20 16:28:00,63.4,43.9,29.94,NW,323,2.0,4.0,49,0.00,,,0.00,WeatherCatV1.21B27,2013-09-20 21:28:00,
2013-09-20 16:33:00,63.5,42.9,29.94,WNW,282,3.0,14.0,47,0.00,,,0.00,WeatherCatV1.21B27,2013-09-20 21:33:00,
2013-09-20 16:38:00,63.3,43.3,29.94,West,274,3.0,5.0,48,0.00,,,0.00,WeatherCatV1.21B27,2013-09-20 21:38:00,
2013-09-20 16:43:00,63.6,43.5,29.94,NW,322,2.0,9.0,48,0.00,,,0.00,WeatherCatV1.21B27,2013-09-20 21:43:00,
2013-09-20 16:48:00,63.7,43.1,29.94,WNW,296,4.0,6.0,47,0.00,,,0.00,WeatherCatV1.21B27,2013-09-20 21:48:00,
2013-09-20 16:53:00,63.6,43.0,29.94,NW,316,3.0,11.0,47,0.00,,,0.00,WeatherCatV1.21B27,2013-09-20 21:53:00,
2013-09-20 16:58:00,63.6,43.5,29.94,WNW,302,4.0,6.0,48,0.00,,,0.00,WeatherCatV1.21B27,2013-09-20 21:58:00,
2013-09-20 17:03:00,63.7,43.6,29.94,NW,311,1.0,8.0,48,0.00,,,0.00,WeatherCatV1.21B27,2013-09-20 22:03:00,
2013-09-20 17:08:00,63.9,43.3,29.94,WNW,299,2.0,6.0,47,0.00,,,0.00,WeatherCatV1.21B27,2013-09-20 22:08:00,
2013-09-20 17:13:00,64.0,43.9,29.94,West,266,3.0,6.0,48,0.00,,,0.00,WeatherCatV1.21B27,2013-09-20 22:13:00,
2013-09-20 17:18:00,64.1,43.5,29.94,WNW,282,6.0,7.0,47,0.00,,,0.00,WeatherCatV1.21B27,2013-09-20 22:18:00,
2013-09-20 17:23:00,63.8,43.2,29.93,WNW,300,3.0,8.0,47,0.00,,,0.00,WeatherCatV1.21B27,2013-09-20 22:23:00,
2013-09-20 17:28:00,63.4,42.8,29.93,WNW,293,1.0,8.0,47,0.00,,,0.00,WeatherCatV1.21B27,2013-09-20 22:28:00,
2013-09-20 17:33:00,63.2,43.2,29.93,WNW,282,5.0,6.0,48,0.00,,,0.00,WeatherCatV1.21B27,2013-09-20 22:33:00,
2013-09-20 17:38:00,63.1,43.1,29.93,West,278,8.0,8.0,48,0.00,,,0.00,WeatherCatV1.21B27,2013-09-20 22:38:00,
2013-09-20 17:43:00,63.0,43.0,29.93,WNW,303,3.0,7.0,48,0.00,,,0.00,WeatherCatV1.21B27,2013-09-20 22:43:00,
2013-09-20 17:48:00,63.1,43.1,29.93,West,281,4.0,6.0,48,0.00,,,0.00,WeatherCatV1.21B27,2013-09-20 22:48:00,
2013-09-20 17:53:00,63.1,42.5,29.93,NW,326,5.0,8.0,47,0.00,,,0.00,WeatherCatV1.21B27,2013-09-20 22:53:00,
2013-09-20 17:58:00,63.1,43.1,29.93,NW,310,2.0,4.0,48,0.00,,,0.00,WeatherCatV1.21B27,2013-09-20 22:58:00,
2013-09-20 18:03:00,63.1,43.1,29.93,WNW,294,1.0,4.0,48,0.00,,,0.00,WeatherCatV1.21B27,2013-09-20 23:03:00,
2013-09-20 18:08:00,63.0,43.0,29.93,NW,305,5.0,7.0,48,0.00,,,0.00,WeatherCatV1.21B27,2013-09-20 23:08:00,
2013-09-20 18:13:00,63.0,43.0,29.93,WNW,298,2.0,5.0,48,0.00,,,0.00,WeatherCatV1.21B27,2013-09-20 23:13:00,
2013-09-20 18:18:00,62.9,42.4,29.93,WNW,302,3.0,6.0,47,0.00,,,0.00,WeatherCatV1.21B27,2013-09-20 23:18:00,
2013-09-20 18:23:00,62.8,42.3,29.93,West,274,0.0,5.0,47,0.00,,,0.00,WeatherCatV1.21B27,2013-09-20 23:23:00,
2013-09-20 18:28:00,62.7,42.2,29.93,WNW,292,3.0,6.0,47,0.00,,,0.00,WeatherCatV1.21B27,2013-09-20 23:28:00,
2013-09-20 18:33:00,62.5,42.0,29.93,NW,320,4.0,5.0,47,0.00,,,0.00,WeatherCatV1.21B27,2013-09-20 23:33:00,
2013-09-20 18:38:00,62.4,42.5,29.93,NW,311,2.0,2.0,48,0.00,,,0.00,WeatherCatV1.21B27,2013-09-20 23:38:00,
2013-09-20 18:43:00,62.3,42.9,29.93,West,276,6.0,6.0,49,0.00,,,0.00,WeatherCatV1.21B27,2013-09-20 23:43:00,
2013-09-20 18:48:00,62.1,42.7,29.93,WNW,295,0.0,4.0,49,0.00,,,0.00,WeatherCatV1.21B27,2013-09-20 23:48:00,
2013-09-20 18:53:00,61.9,43.0,29.93,North,354,1.0,4.0,50,0.00,,,0.00,WeatherCatV1.21B27,2013-09-20 23:53:00,
2013-09-20 18:58:00,61.6,42.8,29.93,NW,324,0.0,3.0,50,0.00,,,0.00,WeatherCatV1.21B27,2013-09-20 23:58:00,
2013-09-20 19:03:00,61.3,42.5,29.93,WNW,303,0.0,3.0,50,0.00,,,0.00,WeatherCatV1.21B27,2013-09-21 00:03:00,
2013-09-20 19:08:00,61.1,42.8,29.94,NW,304,0.0,1.0,51,0.00,,,0.00,WeatherCatV1.21B27,2013-09-21 00:08:00,
2013-09-20 19:13:00,60.7,43.5,29.93,NW,304,0.0,0.0,53,0.00,,,0.00,WeatherCatV1.21B27,2013-09-21 00:13:00,
2013-09-20 19:18:00,60.2,43.5,29.93,NW,304,0.0,1.0,54,0.00,,,0.00,WeatherCatV1.21B27,2013-09-21 00:18:00,
2013-09-20 19:23:00,59.7,44.4,29.93,NW,304,0.0,0.0,57,0.00,,,0.00,WeatherCatV1.21B27,2013-09-21 00:23:00,
2013-09-20 19:28:00,59.2,44.4,29.93,NW,304,0.0,0.0,58,0.00,,,0.00,WeatherCatV1.21B27,2013-09-21 00:28:00,
2013-09-20 19:33:00,58.6,44.3,29.93,NW,304,0.0,0.0,59,0.00,,,0.00,WeatherCatV1.21B27,2013-09-21 00:33:00,
2013-09-20 19:38:00,57.9,43.7,29.94,NW,304,0.0,0.0,59,0.00,,,0.00,WeatherCatV1.21B27,2013-09-21 00:38:00,
2013-09-20 19:43:00,57.2,43.9,29.94,NW,304,0.0,0.0,61,0.00,,,0.00,WeatherCatV1.21B27,2013-09-21 00:43:00,
2013-09-20 19:48:00,56.6,44.2,29.94,NW,304,0.0,0.0,63,0.00,,,0.00,WeatherCatV1.21B27,2013-09-21 00:48:00,
2013-09-20 19:53:00,56.0,43.6,29.94,NW,304,0.0,0.0,63,0.00,,,0.00,WeatherCatV1.21B27,2013-09-21 00:53:00,
2013-09-20 19:58:00,55.4,43.8,29.94,NW,304,0.0,0.0,65,0.00,,,0.00,WeatherCatV1.21B27,2013-09-21 00:58:00,
2013-09-20 20:03:00,54.9,43.8,29.94,NW,304,0.0,0.0,66,0.00,,,0.00,WeatherCatV1.21B27,2013-09-21 01:03:00,
2013-09-20 20:08:00,54.3,43.6,29.94,NW,304,0.0,0.0,67,0.00,,,0.00,WeatherCatV1.21B27,2013-09-21 01:08:00,
2013-09-20 20:13:00,53.7,43.8,29.94,NW,304,0.0,0.0,69,0.00,,,0.00,WeatherCatV1.21B27,2013-09-21 01:13:00,
2013-09-20 20:18:00,53.2,43.7,29.94,NW,304,0.0,0.0,70,0.00,,,0.00,WeatherCatV1.21B27,2013-09-21 01:18:00,
2013-09-20 20:23:00,52.8,43.7,29.94,NW,304,0.0,0.0,71,0.00,,,0.00,WeatherCatV1.21B27,2013-09-21 01:23:00,
2013-09-20 20:28:00,52.4,44.0,29.94,NW,304,0.0,0.0,73,0.00,,,0.00,WeatherCatV1.21B27,2013-09-21 01:28:00,
2013-09-20 20:33:00,52.0,43.6,29.94,NW,304,0.0,0.0,73,0.00,,,0.00,WeatherCatV1.21B27,2013-09-21 01:33:00,
2013-09-20 20:38:00,51.6,43.9,29.94,NW,304,0.0,0.0,75,0.00,,,0.00,WeatherCatV1.21B27,2013-09-21 01:38:00,
2013-09-20 20:43:00,51.1,43.5,29.94,NW,304,0.0,0.0,75,0.00,,,0.00,WeatherCatV1.21B27,2013-09-21 01:43:00,
2013-09-20 20:48:00,50.8,43.5,29.94,NW,304,0.0,0.0,76,0.00,,,0.00,WeatherCatV1.21B27,2013-09-21 01:48:00,
2013-09-20 20:53:00,50.4,43.8,29.94,NW,304,0.0,0.0,78,0.00,,,0.00,WeatherCatV1.21B27,2013-09-21 01:53:00,
2013-09-20 20:58:00,50.1,43.8,29.94,NW,304,0.0,0.0,79,0.00,,,0.00,WeatherCatV1.21B27,2013-09-21 01:58:00,
2013-09-20 21:03:00,49.7,43.5,29.94,NW,304,0.0,0.0,79,0.00,,,0.00,WeatherCatV1.21B27,2013-09-21 02:03:00,
2013-09-20 21:08:00,49.4,43.2,29.95,NW,305,0.0,0.0,79,0.00,,,0.00,WeatherCatV1.21B27,2013-09-21 02:08:00,
2013-09-20 21:13:00,49.2,43.3,29.95,NW,305,0.0,0.0,80,0.00,,,0.00,WeatherCatV1.21B27,2013-09-21 02:13:00,
2013-09-20 21:18:00,48.9,43.0,29.95,NW,305,0.0,0.0,80,0.00,,,0.00,WeatherCatV1.21B27,2013-09-21 02:18:00,
2013-09-20 21:23:00,48.7,43.1,29.95,NW,305,0.0,0.0,81,0.00,,,0.00,WeatherCatV1.21B27,2013-09-21 02:23:00,
2013-09-20 21:28:00,48.5,43.3,29.95,NW,305,0.0,0.0,82,0.00,,,0.00,WeatherCatV1.21B27,2013-09-21 02:28:00,
2013-09-20 21:33:00,48.2,43.0,29.95,NW,305,0.0,0.0,82,0.00,,,0.00,WeatherCatV1.21B27,2013-09-21 02:33:00,
2013-09-20 21:38:00,48.0,42.8,29.95,NW,305,0.0,0.0,82,0.00,,,0.00,WeatherCatV1.21B27,2013-09-21 02:38:00,
2013-09-20 21:43:00,47.8,42.6,29.95,NW,305,0.0,0.0,82,0.00,,,0.00,WeatherCatV1.21B27,2013-09-21 02:43:00,
2013-09-20 21:48:00,47.6,42.7,29.95,NW,305,0.0,0.0,83,0.00,,,0.00,WeatherCatV1.21B27,2013-09-21 02:48:00,
2013-09-20 21:53:00,47.3,42.7,29.95,NW,305,0.0,0.0,84,0.00,,,0.00,WeatherCatV1.21B27,2013-09-21 02:53:00,
2013-09-20 21:58:00,47.0,42.4,29.96,NW,305,0.0,0.0,84,0.00,,,0.00,WeatherCatV1.21B27,2013-09-21 02:58:00,
2013-09-20 22:03:00,46.8,42.5,29.96,NW,305,0.0,0.0,85,0.00,,,0.00,WeatherCatV1.21B27,2013-09-21 03:03:00,
2013-09-20 22:08:00,46.6,42.6,29.95,NW,305,0.0,0.0,86,0.00,,,0.00,WeatherCatV1.21B27,2013-09-21 03:08:00,
2013-09-20 22:13:00,46.4,42.4,29.95,NW,305,0.0,0.0,86,0.00,,,0.00,WeatherCatV1.21B27,2013-09-21 03:13:00,
2013-09-20 22:18:00,46.3,42.7,29.95,NW,305,0.0,0.0,87,0.00,,,0.00,WeatherCatV1.21B27,2013-09-21 03:18:00,
2013-09-20 22:23:00,46.1,42.5,29.96,NW,305,0.0,0.0,87,0.00,,,0.00,WeatherCatV1.21B27,2013-09-21 03:23:00,
2013-09-20 22:28:00,46.0,42.3,29.96,NW,309,0.0,0.0,87,0.00,,,0.00,WeatherCatV1.21B27,2013-09-21 03:28:00,
2013-09-20 22:33:00,45.8,42.2,29.95,NW,309,0.0,0.0,87,0.00,,,0.00,WeatherCatV1.21B27,2013-09-21 03:33:00,
2013-09-20 22:38:00,45.6,42.2,29.96,NW,309,0.0,0.0,88,0.00,,,0.00,WeatherCatV1.21B27,2013-09-21 03:38:00,
2013-09-20 22:43:00,45.4,42.1,29.96,NW,310,0.0,0.0,88,0.00,,,0.00,WeatherCatV1.21B27,2013-09-21 03:43:00,
2013-09-20 22:48:00,45.2,42.2,29.96,NW,310,0.0,0.0,89,0.00,,,0.00,WeatherCatV1.21B27,2013-09-21 03:48:00,
2013-09-20 22:53:00,45.1,42.0,29.96,NW,310,0.0,0.0,89,0.00,,,0.00,WeatherCatV1.21B27,2013-09-21 03:53:00,
2013-09-20 22:58:00,44.9,41.9,29.96,NW,310,0.0,0.0,89,0.00,,,0.00,WeatherCatV1.21B27,2013-09-21 03:58:00,
2013-09-20 23:01:00,44.7,41.7,29.96,NW,310,0.0,0.0,89,0.00,,,0.00,WeatherCatV1.21B27,2013-09-21 04:01:00,
2013-09-20 23:06:00,44.5,41.8,29.96,NW,310,0.0,0.0,90,0.00,,,0.00,WeatherCatV1.21B27,2013-09-21 04:06:00,
2013-09-20 23:11:00,44.3,41.5,29.96,NW,310,0.0,0.0,90,0.00,,,0.00,WeatherCatV1.21B27,2013-09-21 04:11:00,
2013-09-20 23:16:00,44.1,41.4,29.96,NW,310,0.0,0.0,90,0.00,,,0.00,WeatherCatV1.21B27,2013-09-21 04:16:00,
2013-09-20 23:21:00,44.0,41.5,29.96,NW,310,0.0,0.0,91,0.00,,,0.00,WeatherCatV1.21B27,2013-09-21 04:21:00,
2013-09-20 23:26:00,43.8,41.3,29.96,NW,326,0.0,0.0,91,0.00,,,0.00,WeatherCatV1.21B27,2013-09-21 04:26:00,
2013-09-20 23:31:00,43.7,41.2,29.96,NW,326,0.0,0.0,91,0.00,,,0.00,WeatherCatV1.21B27,2013-09-21 04:31:00,
2013-09-20 23:36:00,43.5,41.0,29.96,NW,326,0.0,0.0,91,0.00,,,0.00,WeatherCatV1.21B27,2013-09-21 04:36:00,
2013-09-20 23:41:00,43.4,41.0,29.96,NW,326,0.0,0.0,91,0.00,,,0.00,WeatherCatV1.21B27,2013-09-21 04:41:00,
2013-09-20 23:46:00,43.3,40.8,29.96,NNW,334,0.0,0.0,91,0.00,,,0.00,WeatherCatV1.21B27,2013-09-21 04:46:00,
2013-09-20 23:51:00,43.1,40.7,29.96,NNW,334,0.0,0.0,91,0.00,,,0.00,WeatherCatV1.21B27,2013-09-21 04:51:00,
2013-09-20 23:56:00,43.1,40.9,29.96,NNW,334,0.0,0.0,92,0.00,,,0.00,WeatherCatV1.21B27,2013-09-21 04:56:00,